Wind_Speed
5 6 4 8 4 6 7 4 6 6 4 6 4 5 8 8 4 2 6 7 8 8 8 15 16 8 10 14 24 29 25 24 21 23 24 26 26 24 22 21 20 19 20 21
5 2 5 7 5 5 5 4 7 9 2 1 6 5 6 4 3 5 4 4 9 10 7 9 7 7 5 16 34 31 28 23 22 22 23 23 23 22 21 21 22 22 22 21
2 4 8 5 4 8 4 3 6 5 8 0 4 7 8 5 6 5 9 10 5 11 10 10 13 16 12 8 16 25 26 26 22 21 22 23 22 22 24 25 25 24 23 23
4 4 6 7 3 3 5 2 5 5 5 3 7 3 7 8 9 9 15 13 6 12 14 9 11 21 17 13 3 17 19 23 22 22 24 25 26 26 26 25 24 23 24 25
4 6 6 5 7 1 8 5 3 2 3 3 11 5 7 5 9 9 15 23 10 8 13 13 13 16 8 11 8 6 4 21 25 26 26 27 28 27 25 24 24 24 25 26
5 5 1 3 7 2 11 3 4 4 3 5 5 3 6 5 5 7 15 28 19 2 4 8 9 11 10 7 8 9 2 11 24 29 29 28 28 27 27 27 26 26 26 26
7 3 5 3 7 7 11 7 4 6 5 2 5 4 3 5 3 3 9 23 23 15 8 5 9 12 14 15 13 15 15 9 21 21 29 29 30 28 27 28 27 27 28 29
3 9 7 6 2 3 4 3 3 1 2 5 7 4 2 4 6 13 28 32 25 24 16 11 7 10 15 20 18 19 23 18 16 18 27 25 29 31 30 30 30 30 31 30
4 5 4 2 2 2 6 5 1 3 1 1 4 5 3 8 11 22 28 34 31 27 20 18 14 10 10 12 17 25 26 26 23 21 23 29 26 24 24 27 31 33 34 33
0 4 1 5 2 3 4 1 4 4 4 4 4 4 3 9 16 15 20 28 29 26 20 19 17 12 8 8 8 10 14 15 16 19 21 22 26 28 28 30 30 34 37 35
2 2 6 3 4 1 5 3 5 4 2 2 3 4 2 7 7 13 20 27 30 30 26 21 23 18 12 11 10 9 9 11 12 15 19 23 26 27 28 31 31 30 32 36
1 3 4 5 3 2 2 2 4 4 4 1 2 4 5 5 14 24 26 28 30 30 30 29 27 25 22 17 15 13 11 11 13 15 18 20 23 25 27 28 30 30 31 32
2 2 5 7 3 1 2 1 3 4 3 4 4 4 6 18 24 27 28 33 34 34 35 34 33 31 29 27 24 21 18 16 14 13 14 16 18 23 24 26 29 31 31 32
3 2 6 6 7 1 4 2 4 4 2 4 6 7 11 13 13 20 26 28 30 34 36 36 35 34 32 29 27 24 22 20 20 19 18 18 17 17 18 22 22 22 26 28
4 5 5 6 9 4 7 10 7 9 7 7 3 2 5 6 9 18 18 24 33 41 41 39 39 36 33 30 28 27 25 24 24 24 24 23 22 20 19 18 20 22 23 24
3 3 1 5 9 4 7 9 8 4 1 8 4 4 4 12 15 18 17 26 30 35 39 41 41 39 40 38 35 30 25 24 24 26 25 26 26 25 23 21 20 20 22 23
1 2 1 5 3 7 6 2 2 5 6 3 2 4 12 9 18 23 15 20 25 31 34 40 42 42 43 43 41 39 36 33 30 27 26 26 28 28 27 25 23 23 22 22
4 3 2 4 3 2 3 6 9 13 8 9 8 10 12 14 23 22 9 33 41 39 39 40 40 43 42 42 42 42 41 40 37 33 32 29 26 26 27 28 27 26 24 23
6 4 3 2 2 3 3 3 3 3 5 8 7 10 15 22 22 6 15 37 29 32 36 36 37 38 40 40 41 42 42 41 40 38 36 34 31 30 30 30 29 27 27 24
6 3 2 1 2 5 2 3 9 5 4 10 10 11 16 20 6 4 38 36 33 32 31 35 37 37 37 39 39 40 41 41 41 39 39 36 34 34 33 33 31 29 29 27
3 1 5 4 4 3 3 16 8 3 1 11 11 12 16 8 10 25 30 33 33 33 35 35 35 32 39 39 37 38 40 41 41 42 42 40 37 35 33 33 33 32 30 27
5 5 4 2 3 7 18 1 1 3 4 10 11 11 13 16 20 22 24 27 28 31 35 38 41 41 41 40 39 39 41 41 41 41 42 41 38 35 34 32 31 32 31 28
2 1 1 1 1 5 13 12 4 4 6 9 11 14 15 16 19 22 26 27 29 32 33 34 37 40 42 41 41 42 40 38 39 41 41 41 35 34 34 30 29 30 30 29
2 3 2 2 5 6 8 8 9 6 6 9 9 13 15 17 19 23 26 30 31 32 35 35 37 39 41 41 41 40 41 41 40 40 41 37 35 34 35 29 27 28 29 29
1 5 1 2 4 12 6 9 9 6 7 9 10 12 14 17 20 23 25 28 29 31 33 35 37 39 42 44 43 41 43 41 42 39 39 37 33 32 31 29 27 31 31 28
4 1 1 1 2 2 2 7 7 8 10 11 12 14 14 17 20 22 24 26 27 31 32 35 35 37 40 42 44 44 45 41 42 41 39 34 29 31 27 28 27 31 32 29
Wind_Direction
357 44 324 297 243 239 268 252 274 275 269 344 347 293 303 336 0 177 167 134 166 172 174 211 239 261 299 280 231 209 203 200 199 197 199 200 206 211 215 213 212 212 210 210
11 319 298 289 287 274 299 292 319 295 279 333 344 358 342 30 19 328 335 146 199 178 150 177 181 191 231 260 219 209 206 204 204 206 207 213 217 218 221 221 219 219 219 218
182 273 325 337 323 347 338 312 313 266 319 141 341 21 3 337 346 27 17 16 154 181 168 190 196 195 163 185 218 214 209 209 215 216 216 221 220 224 224 224 224 226 225 225
242 311 337 312 338 32 317 85 295 310 24 16 16 23 6 346 22 25 9 353 341 168 175 152 151 128 125 69 83 227 227 215 224 232 228 230 227 226 226 228 231 234 233 232
280 346 348 339 305 359 257 346 293 354 36 20 357 69 302 356 9 358 351 5 331 191 173 173 169 170 129 104 177 146 231 221 225 236 239 239 238 240 242 240 239 240 239 237
261 298 285 272 310 274 296 31 36 47 47 39 323 56 342 3 337 331 346 24 30 323 243 228 222 221 212 202 216 174 67 268 233 231 236 241 244 245 246 247 248 245 242 242
327 338 323 352 350 355 12 30 3 19 15 249 337 43 243 329 357 328 349 21 33 29 12 323 295 249 238 237 241 235 227 242 228 235 232 237 245 249 252 255 256 255 251 247
41 333 9 350 63 293 349 46 106 30 1 292 337 21 330 342 39 51 33 17 14 14 12 12 344 286 267 257 252 244 237 247 251 247 237 244 247 250 254 255 255 256 257 258
358 288 319 39 334 70 322 40 259 103 178 54 308 318 15 30 19 6 6 2 4 2 10 7 354 337 303 277 264 253 254 257 255 251 253 248 258 261 264 260 258 258 258 258
8 301 317 293 37 35 79 229 26 11 23 356 324 300 251 14 2 354 354 348 358 6 9 7 1 336 319 324 313 283 271 275 283 278 272 260 260 263 269 272 275 274 266 264
109 122 291 355 34 289 357 22 49 111 95 111 320 287 3 22 342 349 347 343 2 12 14 10 14 22 13 3 355 346 334 319 308 294 288 282 277 273 270 270 271 275 274 273
28 152 292 272 295 294 172 127 113 107 294 101 174 275 100 25 29 15 3 5 39 41 38 39 35 32 27 14 2 351 336 328 319 311 302 293 288 283 278 277 277 277 275 279
158 331 327 349 359 5 58 106 124 109 98 207 158 254 15 25 27 19 13 16 27 35 35 32 35 33 30 27 21 13 3 352 342 332 321 313 304 297 292 288 286 279 276 279
154 177 182 215 240 130 298 224 201 142 157 207 221 270 17 1 5 3 7 9 16 18 17 16 16 15 17 19 17 15 7 356 345 344 341 340 333 321 312 297 286 286 285 279
140 224 180 257 274 238 256 258 220 191 189 192 267 134 8 353 345 346 354 6 8 5 2 0 358 356 357 359 -0 359 357 356 350 342 336 333 334 328 316 313 296 289 282 282
18 284 183 260 264 269 257 267 256 221 232 267 217 161 35 344 346 351 359 4 1 358 353 348 345 344 340 338 336 333 330 329 329 327 326 321 317 316 317 309 296 288 284 279
251 199 2 266 335 309 296 12 96 111 58 328 52 32 3 346 341 334 353 7 356 351 345 340 338 335 332 330 329 326 321 317 311 309 306 305 306 307 308 305 300 288 282 282
189 157 199 282 348 257 344 19 95 103 67 34 24 6 346 334 316 322 11 357 343 342 339 337 335 332 330 326 325 322 316 312 310 305 300 300 301 298 297 296 295 293 281 275
178 155 243 247 245 303 246 36 40 37 89 36 359 340 339 334 328 163 333 338 337 333 335 336 335 334 330 327 323 320 315 311 307 304 300 294 292 292 292 291 292 289 283 274
92 83 156 178 236 256 71 341 335 294 185 13 357 339 340 342 351 300 326 335 337 339 341 341 339 338 338 335 328 321 316 312 307 303 297 292 288 285 285 286 285 283 283 277
113 170 225 243 260 285 338 310 327 172 311 339 347 345 343 338 305 308 326 336 343 345 346 346 344 337 341 341 336 327 321 316 311 301 294 291 287 286 283 281 279 278 279 275
186 174 207 182 245 255 347 320 31 329 329 334 341 345 335 320 318 321 327 335 345 348 350 349 347 346 346 346 341 331 328 325 318 311 301 294 289 286 287 282 276 274 271 272
213 280 182 238 350 109 63 84 37 351 345 349 341 344 329 332 335 332 337 348 353 355 353 350 349 347 348 346 344 338 333 332 323 317 306 299 291 286 288 282 273 268 267 268
122 26 188 160 130 131 109 50 35 24 12 0 357 346 346 340 344 341 348 353 354 354 353 347 349 348 349 349 347 345 341 337 331 324 316 300 287 287 292 282 269 263 263 262
6 343 51 95 64 134 105 22 15 14 5 356 354 349 346 342 344 343 347 348 347 348 346 347 347 347 348 349 349 349 345 341 336 331 325 309 289 283 295 284 274 265 261 262
11 127 183 310 62 311 332 336 353 357 353 349 342 338 342 339 336 337 338 339 340 341 341 344 346 346 348 349 348 350 349 345 342 338 332 321 299 286 290 288 282 270 262 260
Height
1509 1514 1515 1509 1508 1506 1505 1506 1501 1486 1478 1479 1475 1472 1469 1465 1463 1464 1465 1469 1471 1473 1475 1479 1479 1474 1479 1488 1492 1495 1498 1501 1504 1508 1511 1515 1518 1522 1525 1527 1530 1532 1534 1536
1514 1513 1508 1506 1503 1502 1500 1497 1495 1483 1478 1478 1476 1473 1471 1468 1468 1465 1466 1470 1470 1473 1476 1478 1473 1475 1476 1477 1487 1491 1497 1501 1503 1506 1510 1515 1519 1521 1524 1527 1528 1530 1532 1533
1516 1510 1507 1505 1503 1502 1498 1497 1497 1496 1484 1479 1478 1478 1479 1474 1471 1469 1468 1467 1469 1473 1473 1476 1478 1476 1473 1477 1481 1489 1493 1500 1503 1506 1509 1512 1516 1519 1520 1521 1523 1526 1529 1531
1515 1510 1509 1506 1502 1504 1504 1496 1495 1491 1489 1493 1489 1499 1484 1483 1478 1474 1472 1472 1472 1472 1475 1476 1475 1473 1479 1476 1483 1489 1493 1497 1502 1506 1509 1510 1511 1513 1514 1518 1522 1524 1527 1529
1514 1511 1511 1507 1503 1502 1500 1495 1493 1490 1492 1494 1496 1503 1495 1487 1485 1484 1479 1474 1471 1474 1474 1475 1478 1482 1481 1477 1485 1487 1487 1493 1499 1504 1507 1509 1510 1512 1514 1517 1520 1521 1524 1526
1515 1511 1510 1508 1502 1499 1496 1494 1495 1498 1501 1513 1510 1511 1503 1500 1499 1493 1484 1477 1473 1475 1478 1478 1479 1479 1480 1480 1482 1482 1484 1491 1495 1501 1504 1506 1508 1509 1511 1514 1516 1518 1519 1522
1519 1512 1509 1508 1506 1500 1500 1503 1519 1518 1523 1518 1511 1511 1504 1500 1498 1496 1491 1487 1483 1482 1480 1480 1479 1478 1481 1481 1482 1485 1488 1493 1493 1497 1499 1501 1505 1506 1507 1510 1512 1514 1516 1516
1535 1532 1515 1512 1514 1515 1514 1516 1531 1519 1531 1529 1514 1511 1508 1502 1499 1498 1494 1491 1488 1484 1484 1482 1481 1481 1482 1484 1485 1487 1491 1492 1493 1494 1493 1496 1500 1501 1502 1504 1506 1507 1510 1512
1533 1526 1515 1514 1513 1515 1514 1523 1520 1526 1528 1533 1526 1512 1502 1504 1503 1499 1496 1493 1489 1487 1484 1482 1482 1481 1481 1484 1485 1487 1488 1489 1491 1491 1492 1493 1494 1493 1495 1495 1497 1499 1503 1505
1529 1533 1518 1515 1515 1515 1515 1518 1524 1531 1530 1528 1528 1524 1523 1515 1512 1506 1501 1496 1492 1489 1487 1487 1486 1484 1483 1483 1482 1483 1484 1484 1483 1485 1487 1488 1490 1491 1490 1491 1489 1492 1494 1495
1529 1534 1523 1518 1520 1521 1523 1523 1528 1534 1537 1537 1543 1525 1521 1522 1519 1515 1509 1504 1498 1494 1491 1488 1485 1484 1484 1483 1483 1483 1482 1482 1481 1482 1482 1483 1484 1484 1485 1484 1483 1484 1486 1486
1529 1535 1535 1523 1521 1521 1520 1522 1528 1536 1536 1542 1543 1536 1523 1522 1520 1514 1511 1505 1501 1498 1496 1493 1489 1486 1483 1483 1482 1481 1481 1481 1481 1479 1479 1478 1476 1476 1475 1474 1476 1478 1478 1478
1528 1535 1541 1526 1524 1522 1520 1521 1524 1530 1534 1536 1540 1527 1522 1517 1515 1517 1516 1512 1507 1503 1498 1494 1492 1491 1488 1485 1484 1482 1479 1477 1476 1475 1475 1474 1472 1470 1466 1466 1468 1470 1471 1469
1526 1534 1534 1543 1525 1526 1526 1524 1523 1527 1542 1530 1528 1516 1523 1521 1518 1517 1517 1515 1512 1508 1504 1501 1497 1494 1491 1489 1485 1481 1481 1478 1478 1476 1473 1470 1467 1465 1463 1463 1462 1461 1463 1463
1524 1530 1534 1527 1524 1524 1520 1516 1519 1524 1518 1522 1517 1520 1530 1529 1526 1523 1520 1515 1509 1504 1502 1501 1499 1495 1493 1488 1486 1484 1482 1479 1477 1473 1470 1469 1467 1464 1462 1459 1457 1457 1457 1456
1528 1529 1529 1530 1520 1521 1519 1514 1516 1518 1519 1519 1514 1520 1529 1527 1525 1522 1520 1516 1512 1509 1505 1500 1496 1493 1490 1488 1486 1484 1482 1479 1476 1473 1469 1467 1464 1462 1459 1456 1455 1452 1449 1449
1531 1531 1529 1525 1519 1519 1513 1509 1511 1522 1525 1525 1520 1530 1531 1527 1523 1521 1520 1518 1516 1511 1507 1501 1496 1492 1487 1483 1481 1478 1475 1472 1470 1468 1465 1462 1459 1455 1452 1451 1447 1447 1445 1444
1530 1533 1531 1530 1522 1523 1519 1515 1512 1519 1527 1530 1530 1533 1533 1531 1525 1519 1519 1515 1510 1508 1504 1499 1495 1488 1484 1479 1474 1469 1465 1462 1460 1458 1456 1454 1451 1448 1445 1445 1440 1439 1437 1435
1525 1531 1532 1530 1531 1517 1521 1521 1522 1521 1533 1535 1535 1533 1531 1527 1520 1518 1515 1516 1514 1508 1502 1497 1492 1487 1480 1474 1468 1463 1458 1454 1451 1448 1446 1444 1443 1440 1438 1434 1432 1431 1430 1427
1524 1528 1532 1533 1528 1518 1524 1526 1526 1526 1522 1538 1536 1534 1531 1527 1523 1519 1516 1514 1509 1504 1499 1492 1487 1482 1477 1470 1463 1457 1453 1447 1443 1440 1436 1434 1432 1430 1428 1427 1425 1423 1421 1416
1530 1531 1530 1529 1528 1519 1532 1526 1524 1522 1536 1536 1535 1532 1531 1530 1530 1523 1517 1509 1504 1499 1493 1488 1483 1478 1472 1464 1458 1451 1445 1441 1435 1430 1425 1422 1420 1418 1417 1415 1414 1412 1410 1408
1521 1526 1527 1527 1527 1519 1528 1526 1526 1540 1537 1536 1533 1531 1529 1529 1525 1520 1515 1510 1503 1497 1487 1479 1474 1470 1465 1459 1453 1445 1438 1432 1426 1418 1412 1408 1406 1405 1403 1402 1400 1400 1400 1401
1523 1527 1525 1529 1527 1535 1535 1536 1537 1536 1535 1533 1531 1530 1527 1523 1520 1516 1511 1505 1499 1493 1487 1484 1477 1468 1462 1455 1448 1439 1434 1427 1418 1409 1402 1396 1395 1393 1391 1390 1389 1390 1391 1392
1528 1529 1528 1530 1536 1535 1535 1535 1535 1533 1533 1531 1530 1528 1525 1521 1517 1512 1507 1500 1494 1490 1485 1480 1473 1467 1460 1453 1444 1437 1428 1419 1411 1402 1394 1387 1384 1382 1381 1380 1380 1381 1382 1383
1532 1531 1532 1530 1534 1535 1535 1535 1534 1532 1531 1529 1529 1526 1524 1520 1515 1510 1504 1499 1495 1490 1484 1478 1471 1463 1455 1448 1441 1433 1424 1414 1404 1395 1387 1379 1375 1373 1373 1371 1371 1372 1373 1375
1533 1535 1535 1533 1536 1537 1537 1536 1535 1533 1531 1529 1527 1524 1522 1519 1514 1509 1503 1499 1494 1488 1482 1475 1469 1462 1453 1445 1438 1429 1421 1412 1401 1390 1382 1374 1368 1366 1365 1364 1363 1364 1365 1366